User: anonymous   Login
Location: Beugnon
(47.6222°N, 3.7850°E)
Time: 13:28:17
(UTC+00:00)
Language:

Cosmos 2360 Rocket - Orbit

View from above orbital plane
View from above orbital plane
View from above satellite
View from above satellite

Ground track
Ground track

The orbit data is extracted from the following two-line orbital elements,

1 25407U 98045B   20191.52455586  .00000269  00000-0  16114-3 0  9990
2 25407  71.0098 211.2250 0009692 295.3453  64.6666 14.15801159134473
Epoch (UTC): 09 July 2020 12:35:21
Eccentricity: 0.0009692
inclination: 71.0098°
perigee height: 832 km
apogee height: 846 km
right ascension of ascending node: 211.2250°
argument of perigee: 295.3453°
revolutions per day: 14.15801159
mean anomaly at epoch: 64.6666°
orbit number at epoch: 13447

The dashed part of the orbit path shows where the satellite is in the earth's shadow,  

DLR